Regional Weather Roundup
Issued by NWS Albany, NY

Home | Current Version | Previous Version | Text Only | Print | Product List | Glossary On
Versions: 1 2 3 4 5 6 7 8 9 10 11 12 13 14 15 16 17 18 19 20 21 22 23 24 25 26 27 28 29 30 31 32 33 34 35 36 37 38 39 40 41 42 43 44 45 46 47 48 49 50
000
ASUS41 KALY 292110
RWRALY

NEW YORK STATE HOURLY WEATHER ROUNDUP
NATIONAL WEATHER SERVICE ALBANY NY
500 PM EDT FRI AUG 29 2014

NOTE: "FAIR" INDICATES FEW OR NO CLOUDS BELOW 12,000 FEET WITH NO
SIGNIFICANT WEATHER AND/OR NO OBSTRUCTIONS TO VISIBILITY.

NYZ032-033-038>043-046>054-057>066-NYZ062>081-292200-
EAST


CITY           SKY/WX    TMP DP  RH WIND       PRES   REMARKS
ALBANY         MOSUNNY   76  54  46 W3        30.17S
GLENS FALLS    SUNNY     74  54  49 SE5       30.17S
POUGHKEEPSIE   SUNNY     77  53  43 VRB3      30.16S
NEWBURGH       MOSUNNY   75  54  46 VRB5      30.18
MONTGOMERY     SUNNY     78  51  38 VRB3      30.16S
WHITE PLAINS   MOSUNNY   75  51  43 SE8       30.18R
ISLIP          MOSUNNY   72  54  53 E12       30.18R
NEW YORK CITY  MOSUNNY   76  52  43 SE9       30.17R
CENTRAL PARK   SUNNY     76  51  41 S6        30.20R
$$

NYZ005>009-017-018-044>046-055-056-292200-
CENTRAL


CITY           SKY/WX    TMP DP  RH WIND       PRES   REMARKS
FULTON         SUNNY     73  53  49 VRB3      30.15F
SYRACUSE       PTSUNNY   74  57  55 E7        30.15S
ROME           SUNNY     73  54  51 SE6       30.17S
ELMIRA         MOSUNNY   74  54  49 VRB5      30.15F
BINGHAMTON     SUNNY     70  50  49 S5        30.18F
MONTICELLO     MOSUNNY   73  50  43 SE5       30.20S
$$

NYZ026>034-041>043-292200-
NORTH


CITY           SKY/WX    TMP DP  RH WIND       PRES   REMARKS
WATERTOWN      SUNNY     73  54  51 W6        30.15F
FORT DRUM      NOT AVBL
MASSENA        SUNNY     73  57  57 N5        30.16F
SARANAC LAKE   MOSUNNY   70  49  47 CALM      30.17S
PLATTSBURGH    SUNNY     70  51  51 VRB5      30.16F
$$

NYZ001>004-010>016-019>021-292200-
WEST


CITY           SKY/WX    TMP DP  RH WIND       PRES   REMARKS
NIAGARA FALLS  MOSUNNY   76  50  40 CALM      30.12F
BUFFALO        MOSUNNY   77  49  37 CALM      30.12F
DUNKIRK        SUNNY     72  54  53 N8        30.12F
JAMESTOWN      SUNNY     72  50  46 SE5       30.15S
WELLSVILLE     SUNNY     71  53  52 SE6       30.19F
ROCHESTER      PTSUNNY   75  56  51 NE5       30.14F
PENN YAN       MOSUNNY   72  53  51 CALM      30.17S
$$

             KEY
       WCI = WIND CHILL INDEX
       VSB = VISIBILITY
       HX  = HEAT INDEX
$$



USA.gov is the U.S. government's official web portal to all federal, state and local government web resources and services.